When you browse on this site, cookies collect data to enhance your experience and personalize the content and advertising you see.
Visit our Privacy Policy to learn more. By continuing to use the site, you agree to this use of cookies and data.
  • In Hungary
  • List of Countries
  • For 7 days
  • Water Temperature
  • Satellite Maps
  • Weather Map
  • News
  • Weather Widgets
  • user-avatar
    Login

    Hourly Weather Slyvky

    Today, 18 December, Tuesday

    Time Temperature Precipitation Wind Pressure Humidity
    00:00 -2°C° 0.1 mm 1 mps 719 mmHg 100%
    01:00 -2°C° 0.2 mm 1 mps 719 mmHg 100%
    02:00 -4°C° 0 mm 0 mps 720 mmHg 100%
    03:00 -4°C° 0 mm 1 mps 720 mmHg 100%
    04:00 -6°C° 0 mm 1 mps 720 mmHg 100%
    05:00 -6°C° 0 mm 1 mps 720 mmHg 100%
    06:00 -6°C° 0 mm 1 mps 721 mmHg 99%
    07:00 -4°C° 0 mm 1 mps 721 mmHg 95%
    08:00 -4°C° 0 mm 1 mps 721 mmHg 92%
    09:00 -4°C° 0 mm 1 mps 721 mmHg 91%
    10:00 -4°C° 0 mm 1 mps 721 mmHg 91%
    11:00 -3°C° 0 mm 1 mps 721 mmHg 95%
    12:00 -2°C° 0 mm 1 mps 721 mmHg 99%
    13:00 -2°C° 0 mm 1 mps 721 mmHg 100%
    14:00 0°C° 0 mm 1 mps 722 mmHg 91%
    15:00 -4°C° 0 mm 2 mps 722 mmHg 100%
    16:00 -3°C° 0 mm 1 mps 722 mmHg 100%
    17:00 -5°C° 0 mm 0 mps 722 mmHg 100%
    18:00 -5°C° 0 mm 0 mps 722 mmHg 100%
    19:00 -6°C° 0 mm 1 mps 722 mmHg 100%
    20:00 -6°C° 0 mm 1 mps 722 mmHg 100%
    21:00 -6°C° 0 mm 1 mps 722 mmHg 97%
    22:00 -6°C° 0 mm 0 mps 722 mmHg 99%
    23:00 -7°C° 0 mm 1 mps 722 mmHg 99%

    Tomorrow, 19 December, Wednesday

    Time Temperature Precipitation Wind Pressure Humidity
    00:00 -7°C° 0 mm 0 mps 721 mmHg 98%
    01:00 -7°C° 0 mm 0 mps 721 mmHg 100%
    02:00 -8°C° 0 mm 0 mps 722 mmHg 100%
    03:00 -8°C° 0 mm 1 mps 721 mmHg 100%
    04:00 -8°C° 0 mm 1 mps 721 mmHg 100%
    05:00 -8°C° 0 mm 1 mps 721 mmHg 100%
    06:00 -8°C° 0 mm 1 mps 721 mmHg 100%
    07:00 -8°C° 0 mm 1 mps 721 mmHg 98%
    08:00 -8°C° 0 mm 1 mps 721 mmHg 95%
    09:00 -8°C° 0 mm 1 mps 721 mmHg 94%
    10:00 -8°C° 0 mm 1 mps 721 mmHg 93%
    11:00 -9°C° 0 mm 2 mps 721 mmHg 92%
    12:00 -6°C° 0 mm 1 mps 722 mmHg 92%
    13:00 -4°C° 0 mm 1 mps 721 mmHg 91%
    14:00 -4°C° 0 mm 1 mps 721 mmHg 94%
    15:00 -4°C° 0 mm 1 mps 721 mmHg 94%
    16:00 -6°C° 0 mm 2 mps 721 mmHg 88%
    17:00 -6°C° 0 mm 2 mps 721 mmHg 82%
    18:00 -6°C° 0 mm 2 mps 721 mmHg 78%
    19:00 -5°C° 0 mm 2 mps 721 mmHg 75%
    20:00 -5°C° 0 mm 2 mps 721 mmHg 73%
    21:00 -5°C° 0 mm 2 mps 720 mmHg 70%
    22:00 -5°C° 0 mm 2 mps 720 mmHg 69%
    23:00 -5°C° 0 mm 2 mps 720 mmHg 69%

    Day after tomorrow, 20 December, Thursday

    Time Temperature Precipitation Wind Pressure Humidity
    00:00 -3°C° 0 mm 1 mps 720 mmHg 65%
    01:00 -2°C° 0 mm 1 mps 720 mmHg 61%
    02:00 -2°C° 0 mm 1 mps 720 mmHg 57%
    03:00 -2°C° 0 mm 1 mps 720 mmHg 58%
    04:00 -1°C° 0 mm 1 mps 720 mmHg 59%
    05:00 -1°C° 0 mm 1 mps 720 mmHg 59%
    06:00 0°C° 0 mm 1 mps 719 mmHg 59%
    07:00 0°C° 0 mm 1 mps 720 mmHg 59%
    08:00 0°C° 0 mm 1 mps 720 mmHg 61%
    09:00 0°C° 0 mm 1 mps 719 mmHg 62%
    10:00 +1°C° 0 mm 1 mps 720 mmHg 62%
    11:00 +1°C° 0 mm 1 mps 720 mmHg 65%
    12:00 +1°C° 0 mm 0 mps 720 mmHg 72%
    13:00 +1°C° 0 mm 0 mps 719 mmHg 80%
    14:00 +2°C° 0 mm 0 mps 719 mmHg 88%
    15:00 +1°C° 0 mm 0 mps 719 mmHg 89%
    16:00 +1°C° 0 mm 0 mps 719 mmHg 81%
    17:00 +2°C° 0 mm 1 mps 719 mmHg 77%
    18:00 +2°C° 0 mm 1 mps 719 mmHg 74%
    19:00 +2°C° 0 mm 1 mps 719 mmHg 71%
    20:00 +1°C° 0 mm 2 mps 719 mmHg 73%
    21:00 +1°C° 0 mm 2 mps 719 mmHg 74%
    22:00 +1°C° 0 mm 2 mps 719 mmHg 73%
    23:00 0°C° 0 mm 3 mps 718 mmHg 75%

    21 December, Friday

    Time Temperature Precipitation Wind Pressure Humidity
    00:00 -1°C° 0 mm 3 mps 718 mmHg 76%
    01:00 -1°C° 0 mm 3 mps 718 mmHg 74%
    02:00 +1°C° 0 mm 2 mps 718 mmHg 73%
    03:00 +1°C° 0 mm 2 mps 718 mmHg 77%
    04:00 -1°C° 0 mm 3 mps 717 mmHg 80%
    05:00 -2°C° 0 mm 4 mps 717 mmHg 80%
    06:00 -2°C° 0 mm 4 mps 717 mmHg 82%
    07:00 -1°C° 0 mm 3 mps 718 mmHg 82%
    08:00 -1°C° 0 mm 3 mps 718 mmHg 86%
    09:00 -1°C° 0.1 mm 4 mps 718 mmHg 87%
    10:00 -1°C° 0 mm 4 mps 718 mmHg 85%
    11:00 0°C° 0 mm 4 mps 718 mmHg 87%
    12:00 0°C° 0 mm 4 mps 718 mmHg 87%
    13:00 0°C° 0 mm 4 mps 717 mmHg 86%
    14:00 0°C° 0 mm 4 mps 717 mmHg 85%
    15:00 0°C° 0 mm 5 mps 717 mmHg 85%
    16:00 -2°C° 0 mm 6 mps 717 mmHg 84%
    17:00 -2°C° 0 mm 7 mps 717 mmHg 84%
    18:00 -2°C° 0 mm 7 mps 716 mmHg 83%
    19:00 -2°C° 0 mm 7 mps 716 mmHg 82%
    20:00 -2°C° 0 mm 7 mps 716 mmHg 83%
    21:00 -2°C° 0 mm 7 mps 715 mmHg 83%
    22:00 -1°C° 0 mm 4 mps 714 mmHg 85%
    23:00 -1°C° 0 mm 4 mps 713 mmHg 82%

    22 December, Saturday

    Time Temperature Precipitation Wind Pressure Humidity
    00:00 -1°C° 0 mm 5 mps 712 mmHg 80%
    01:00 -2°C° 0 mm 7 mps 711 mmHg 80%
    02:00 -1°C° 0 mm 7 mps 711 mmHg 81%
    03:00 -2°C° 0 mm 10 mps 710 mmHg 82%
    04:00 -2°C° 0 mm 12 mps 710 mmHg 81%
    05:00 -2°C° 0 mm 11 mps 710 mmHg 83%
    06:00 -2°C° 0 mm 10 mps 710 mmHg 83%
    07:00 -1°C° 0 mm 9 mps 710 mmHg 84%
    08:00 -1°C° 0 mm 8 mps 711 mmHg 86%
    09:00 -1°C° 0 mm 8 mps 711 mmHg 86%
    10:00 0°C° 0 mm 7 mps 711 mmHg 87%
    11:00 0°C° 0 mm 7 mps 712 mmHg 91%
    12:00 0°C° 0 mm 7 mps 712 mmHg 91%
    13:00 0°C° 0 mm 7 mps 712 mmHg 90%
    14:00 0°C° 0 mm 7 mps 712 mmHg 89%

    23 December, Sunday

    Time Temperature Precipitation Wind Pressure Humidity
    Show more